Meteo Giornale » Osservazioni meteo Italia » Roma-Ciampino

ore: 23:20 - Osservazioni Meteo Roma-Ciampino
Lat. 41° 47' N Lon. 12° 35' E Alt. 129 metri s.l.m.

nuvoloso Europe/Rome

12 °C

Nuvoloso

Temp. 24 Ore

12 °C

17 °C

Nord

3.7 Km/h

Dew point 8 °C

Umidità 76 %

Visibilità  10 Km

Il sole sorge alle ore 07:02

Il sole tramonta alle ore 16:47

Data e Ora Cielo e Fenomeni T °C DP °C Um. % Pres. hPa Vis. km Vento km/h
Oggi h: 23:20 nuvoloso Nuvoloso 12 8 76 1013 10 N 3.7
Oggi h: 22:50 nuvoloso Nuvoloso 13 8 71 1013 10 N 3.7
Oggi h: 22:20 nuvoloso Nuvoloso 14 8 67 1013 10 N 5.5
Oggi h: 21:50 nuvoloso Nuvoloso 13 9 76 1013 10 N 5.5
Oggi h: 21:20 nuvoloso Nuvoloso 14 8 67 1013 10 SE 9.3
Oggi h: 20:50 nuvoloso Nuvoloso 13 9 76 1013 10 N 5.5
Oggi h: 19:50 nuvoloso Nuvoloso 14 8 67 1013 10 SE 11.1
Oggi h: 19:20 poco_nuvoloso Poco Nuvoloso 14 8 67 1013 10 E/SE 11.1
Oggi h: 18:50 nuvoloso Nuvoloso 14 7 62 1013 10 E/SE 13
Oggi h: 18:20 nuvoloso Nuvoloso 15 8 62 1013 10 SE 24
Oggi h: 17:50 nuvoloso Nuvoloso 15 9 67 1013 10 SE 14.8
Oggi h: 17:20 nuvoloso Nuvoloso 15 9 67 1013 10 E/SE 13
Oggi h: 16:50 nuvoloso Nuvoloso 15 9 67 1013 10 SE 13
Oggi h: 16:20 nuvoloso Nuvoloso 16 10 67 1013 10 SE 16.7
Oggi h: 15:20 nuvoloso Nuvoloso 16 11 72 1013 10 S/SE 18.5
Oggi h: 14:50 nuvoloso Nuvoloso 16 10 67 1012 10 SE 24
Oggi h: 14:20 nuvoloso Nuvoloso 16 10 67 1012 10 SE 18.5
Oggi h: 13:50 nuvoloso Nuvoloso 16 11 72 1012 10 SE 20.3
Oggi h: 13:20 nuvoloso Nuvoloso 17 11 67 1012 10 SE 22.2
Oggi h: 12:50 nuvoloso Nuvoloso 16 10 67 1013 10 SE 24
Oggi h: 12:20 nuvoloso Nuvoloso 16 10 67 1013 10 SE 25.9
Oggi h: 11:50 nuvoloso Nuvoloso 16 10 67 1013 10 SE 22.2
Oggi h: 11:20 nuvoloso Nuvoloso 15 10 72 1014 10 SE 24
Oggi h: 10:50 nuvoloso Nuvoloso 15 10 72 1014 10 SE 20.3
Oggi h: 10:20 nuvoloso Nuvoloso 15 10 72 1013 10 S/SE 18.5
Oggi h: 09:50 coperto_pioggia Pioggia Debole 14 10 76 1014 10 SE 18.5
Oggi h: 09:20 nuvoloso Nuvoloso 14 10 76 1013 10 SE 20.3
Oggi h: 08:50 nuvoloso_piovaschi Rovescio di Pioggia 13 11 87 1014 6 S/SE 20.3
Oggi h: 08:20 coperto_pioggia Pioggia 13 10 81 1013 8 SE 29.6
Oggi h: 07:50 coperto_pioggia Pioggia 13 10 81 1013 10 SE 31.5
Oggi h: 07:20 nuvoloso Nuvoloso 14 10 76 1012 10 SE 24
Oggi h: 06:50 coperto_pioggia Pioggia Debole 13 10 81 1012 10 SE 22.2
Oggi h: 06:20 coperto_pioggia Pioggia Debole 13 9 76 1012 10 SE 33.3
Oggi h: 05:50 coperto_pioggia Pioggia Debole 14 10 76 1012 10 SE 27.8
Oggi h: 03:20 nuvoloso Nuvoloso 14 9 71 1012 10 S/SE 22.2
Oggi h: 02:50 nuvoloso Nuvoloso 14 10 76 1013 10 S/SE 24
Oggi h: 02:20 molto_nuvoloso Molto Nuvoloso 15 10 72 1013 10 SE 27.8
Oggi h: 01:50 molto_nuvoloso Molto Nuvoloso 14 10 76 1013 10 SE 33.3
Oggi h: 01:20 molto_nuvoloso Molto Nuvoloso 14 9 71 1013 10 SE 33.3
Oggi h: 00:50 coperto_pioggia Pioggia Debole 14 10 76 1013 10 SE 27.8
Oggi h: 00:20 coperto_pioggia Pioggia 12 10 87 1013 10 S/SE 18.5
Ieri h: 23:50 coperto_pioggia Pioggia 13 10 81 1013 10 S 14.8
Ieri h: 23:20 coperto_pioggia Pioggia 14 9 71 1013 10 S/SE 25.9
Ieri h: 22:50 coperto_pioggia Pioggia Debole 15 8 62 1013 10 SE 25.9